Orbital Elements at Epoch 2459200.5 (2020-Dec-17.0) TDB
Reference: JPL 30 (heliocentric ecliptic J2000)
Element | Value | Uncertainty (1-sigma) | Units |
e | .07798533008957266 | 3.8072e-08 | |
a | 2.867819177425979 | 1.2638e-08 | au |
q | 2.644171352237207 | 1.0981e-07 | au |
i | .9720965671487888 | 3.9124e-06 | deg |
node | 318.604676178009 | 0.00022926 | deg |
peri | 101.1621153435836 | 0.00023096 | deg |
M | 86.92851476694123 | 2.6826e-05 | deg |
tp | 2458772.162761477444 (2019-Oct-15.66276148) | 0.00013205 | TDB |
period | 1773.887501489475 4.86 | 1.1726e-05 3.21e-08 | d yr |
n | .2029440985957226 | 1.3415e-09 | deg/d |
Q | 3.091467002614751 | 1.3623e-08 | au |
|
| | Orbit Determination Parameters
Additional Information
|